C/2024 N3 ( Sarneczky )

Japanese version
Home page
Updated on November 27, 2024

---------------------------------------------------------------------

* Profile

Discovery Date July 8, 2024
Magnitude 19.6 mag
Discoverer Krisztian Sarneczky (Piszkesteto Observatory in Hungary)

* Pictures

* Orbital Elements

Epoch 2024 Oct. 17.0 TT = JDT 2460600.5
T 2025 Apr. 11.33971 TT                                 Rudenko
q   5.0146600            (2000.0)            P               Q
z  -0.0001726      Peri.   86.87201     -0.01494053     -0.12965135
 +/-0.0000097      Node    82.60882     -0.34482535     -0.93006029
e   1.0008655      Incl.   88.72924     +0.93854795     -0.34377084
From 168 observations 2023 Oct. 9-2024 Nov. 11, mean residual 0".5.

* Magnitudes Graph

        m1 = 8.0 + 5 log d + 10.0 log r

---------------------------------------------------------------------

The orbital elements are published on M.P.E.C. 2024-V192.
The magnitudes graphs are made with Comet for Windows.

---------------------------------------------------------------------

Copyright(C) Seiichi Yoshida (comet@aerith.net). All rights reserved.